[[{"header":{"parameterUnit":"m.s-1","parameterCategory":1,"la1":30.2991,"la2":30.254,"lo1":-89.0895,"lo2":-89.0444,"dy":0.0017,"dx":0.0017,"nx":28,"ny":28,"refTime":"2025-05-27T03:00:00:Z","depth":0,"parameterNumber":2,"parameterNumberName":"U-component_of_WINDS"},"data":[0,0,0,0,0,0,0,0,0,0,0,0,0,0,0,0,0,0,0,0,0,0,0,0,0,0,0,0,0,0,0,0,0,0,0,0,0,0,0,0,0,0,0,0,0,0,0,0,0,0,0,0,0,0,0,0,0,0,3.0458,3.0459,0,3.0556,3.0557,3.0558,3.0549,3.0548,3.0546,3.0545,3.064,3.0644,3.0648,0,0,0,0,0,0,0,0,0,0,0,0,0,3.026,3.0263,3.0458,3.0459,3.0461,3.0555,3.0557,3.0558,3.055,3.0548,3.0546,3.0544,3.0639,3.0644,3.0648,0,0,0,0,0,0,0,0,0,0,0,0,0,3.035,3.0265,3.0458,3.0468,3.047,3.0555,3.0557,3.0558,3.055,3.0548,3.0545,3.0543,3.0637,3.0643,3.0649,3.0729,0,0,3.0667,3.0669,0,0,0,0,0,0,0,0,3.0345,3.0357,3.0465,3.0467,3.047,3.0538,3.0522,3.0616,3.055,3.0519,3.0545,3.0542,3.0608,3.0616,3.0639,3.0734,3.0738,3.0667,3.0671,3.0673,3.0675,0,0,0,0,0,0,0,3.0339,3.0353,3.0497,3.0467,3.047,3.0466,3.0476,3.0539,3.0575,3.0522,3.0522,3.0533,3.0608,3.0633,3.0641,3.0739,3.0667,3.0672,3.0676,3.0678,3.0902,3.0904,0,0,0,0,0,0,3.0331,3.0348,3.0494,3.05,3.0401,3.0471,3.0483,3.0518,3.0574,3.058,3.0535,3.0533,3.0624,3.0634,3.0644,3.074,3.0673,3.0679,3.0682,3.0899,3.0902,3.0905,0,0,0,0,0,0,3.0327,3.0344,3.049,3.0424,3.0442,3.0477,3.0517,3.0521,3.0546,3.0584,3.059,3.0554,3.0623,3.0636,3.0708,3.0743,3.0681,3.0687,3.0897,3.09,3.0904,3.0933,0,0,0,0,0,0,3.0321,3.0343,3.0375,3.0425,3.0446,3.0553,3.0519,3.0525,3.0557,3.0554,3.0604,3.0609,3.0622,3.0699,3.0714,3.075,3.0691,3.0893,3.0898,3.0903,3.0929,3.0937,3.0944,0,0,0,0,0,3.0314,3.0379,3.0377,3.0394,3.0487,3.0555,3.0567,3.0582,3.056,3.0591,3.0615,3.0608,3.0737,3.0707,3.0723,3.0762,3.0891,3.0897,3.0902,3.0925,3.0935,3.0944,0,0,0,0,0,0,3.0331,3.0386,3.0384,3.0467,3.0507,3.0554,3.0594,3.0592,3.0638,3.0634,3.0648,3.066,3.0731,3.0754,3.0719,3.0841,3.0811,3.082,3.0823,3.0833,3.084,3.0832,3.0696,0,0,0,0,0,3.0345,3.0397,3.0442,3.0511,3.0531,3.0559,3.059,3.0597,3.0638,3.0655,3.0684,3.0723,3.0772,3.0804,3.0852,3.0933,3.0941,3.0967,3.0975,3.0981,3.0987,3.1029,3.104,3.0923,3.0923,3.0923,0,0,3.0373,3.0409,3.0441,3.0515,3.0547,3.0599,3.0573,3.063,3.0668,3.0663,3.0732,3.0755,3.0799,3.0875,3.091,3.0896,3.1022,3.0988,3.0992,3.0996,3.1036,3.1047,3.1056,3.0927,3.0926,3.0925,0,0,3.0451,3.0485,3.0545,3.0577,3.0626,3.0644,3.0659,3.0706,3.0721,3.0791,3.0788,3.0833,3.0918,3.0949,3.0975,3.1064,3.1057,3.1079,3.1117,3.1158,3.1167,3.1175,3.1204,3.1214,3.1086,3.1086,3.1086,0,3.0479,3.0559,3.0576,3.0633,3.0664,3.0663,3.0722,3.0752,3.0814,3.0834,3.0818,3.0924,3.0954,3.1035,3.1057,3.108,3.1094,3.1072,3.1165,3.1173,3.1181,3.1208,3.1219,3.1088,3.1088,3.1088,3.1087,0,3.059,3.0646,3.0688,3.0748,3.0784,3.0842,3.0865,3.0899,3.0904,3.0923,3.0993,3.1029,3.1082,3.1103,3.1108,3.1185,3.1174,3.1162,3.1131,3.1194,3.1219,3.123,3.1091,3.109,3.109,3.1089,0,0,3.0681,3.0749,3.0764,3.079,3.0843,3.0885,3.0942,3.0995,3.1023,3.1065,3.1111,3.1183,3.1171,3.1201,3.121,3.1245,3.1309,3.1228,3.1229,3.1239,3.1393,3.14,3.1412,3.1306,3.1309,3.131,3.1388,0,3.0761,3.0864,3.0879,3.0968,3.1018,3.1017,3.1066,3.1103,3.1122,3.1166,3.1187,3.1236,3.1218,3.1236,3.1272,3.1294,3.134,3.1289,3.1346,3.1348,3.1333,3.1426,3.1435,3.1507,3.1399,3.14,3.1402,0,3.0869,3.0915,3.1009,3.1053,3.1075,3.1119,3.1168,3.1211,3.1251,3.1262,3.1296,3.13,3.1356,3.1325,3.1402,3.1366,3.1391,3.1406,3.1409,3.1412,3.1377,3.143,3.153,3.154,3.1418,3.1417,3.1416,0,3.0922,3.1007,3.1074,3.1096,3.1151,3.1181,3.1205,3.1244,3.1274,3.1317,3.1336,3.1385,3.1411,3.1447,3.1462,3.1439,3.1537,3.1508,3.1545,3.1545,3.1564,3.1562,3.1667,3.1584,3.1584,3.1584,3.1584,0,3.1009,3.1066,3.1098,3.1138,3.1201,3.1218,3.1279,3.1302,3.1336,3.1379,3.1382,3.1422,3.1442,3.1484,3.1497,3.1556,3.1569,3.1578,3.158,3.1576,3.1574,3.159,3.1585,3.1587,3.1586,3.1586,3.1585,0,3.1078,3.1102,3.1174,3.122,3.1233,3.1277,3.1315,3.1353,3.1372,3.1427,3.144,3.147,3.152,3.1539,3.1601,3.1609,3.1676,3.1676,3.1663,3.1663,3.1698,3.1693,3.1815,3.183,3.174,3.1741,3.1741,0,3.1131,3.1175,3.1225,3.1255,3.128,3.1328,3.1359,3.1377,3.1409,3.1458,3.149,3.154,3.1581,3.1661,3.1686,3.1732,3.1731,3.177,3.1738,3.1732,3.1728,3.1724,3.1727,3.1775,3.1776,3.1777,3.1778,0,3.1221,3.1231,3.1276,3.1326,3.1363,3.1403,3.1441,3.1465,3.1488,3.1524,3.1575,3.1607,3.167,3.1718,3.1766,3.1788,3.1786,3.1788,3.1799,3.1794,3.1783,3.1787,3.1676,3.1785,3.1784,3.1783,3.1783,3.1783,3.1282,3.132,3.1361,3.1411,3.1442,3.1477,3.1515,3.1539,3.1583,3.1635,3.1643,3.1698,3.1735,3.1799,3.1823,3.1864,3.1854,3.187,3.1873,3.1876,3.1877,3.1779,3.1873,3.1873,3.1873,3.1873,3.1873,0,3.1369,3.1396,3.1442,3.1496,3.1534,3.1532,3.1573,3.1605,3.1654,3.169,3.173,3.1788,3.1835,3.1864,3.1911,3.1938,3.1938,3.195,3.1946,3.1951,3.1885,3.187,3.1949,3.1949,3.1949,3.1949,3.1949,3.1949,3.142,3.1483,3.1497,3.1574,3.16,3.1654,3.1678,3.171,3.1738,3.1804,3.1843,3.1862,3.1895,3.1944,3.1986,3.1993,3.2009,3.202,3.2026,3.1964,3.1956,3.1948,3.1934,3.2025,3.2025,3.2088,3.2089,3.2089]},{"header":{"parameterUnit":"m.s-1","parameterCategory":1,"la1":30.2991,"la2":30.254,"lo1":-89.0895,"lo2":-89.0444,"dy":0.0017,"dx":0.0017,"nx":28,"ny":28,"refTime":"2025-05-27T03:00:00:Z","depth":0,"parameterNumber":3,"parameterNumberName":"V-component_of_WINDS"},"data":[0,0,0,0,0,0,0,0,0,0,0,0,0,0,0,0,0,0,0,0,0,0,0,0,0,0,0,0,0,0,0,0,0,0,0,0,0,0,0,0,0,0,0,0,0,0,0,0,0,0,0,0,0,0,0,0,0,0,2.0854,2.0855,0,2.0996,2.0998,2.1,2.1032,2.1031,2.103,2.1029,2.1172,2.1176,2.1181,0,0,0,0,0,0,0,0,0,0,0,0,0,2.0606,2.0611,2.0854,2.0856,2.0857,2.0996,2.0998,2.1,2.1033,2.1031,2.103,2.1029,2.117,2.1175,2.1181,0,0,0,0,0,0,0,0,0,0,0,0,0,2.0728,2.0612,2.0853,2.089,2.0895,2.0996,2.0998,2.1001,2.1033,2.1031,2.103,2.1028,2.1168,2.1175,2.1182,2.1255,0,0,2.1203,2.1206,0,0,0,0,0,0,0,0,2.0721,2.0737,2.0883,2.0888,2.0894,2.0995,2.0963,2.1086,2.1033,2.098,2.1029,2.1028,2.1114,2.1125,2.1155,2.1261,2.1267,2.1204,2.1208,2.1211,2.1213,0,0,0,0,0,0,0,2.0712,2.0731,2.091,2.0885,2.0892,2.0899,2.0914,2.0986,2.1053,2.0985,2.0988,2.1004,2.1116,2.1148,2.1159,2.1269,2.1204,2.121,2.1214,2.1217,2.1442,2.1444,0,0,0,0,0,0,2.0698,2.0723,2.0906,2.0914,2.0802,2.0904,2.0922,2.0964,2.1053,2.1065,2.1005,2.1005,2.1137,2.115,2.1164,2.1255,2.1211,2.1218,2.1222,2.144,2.1442,2.1444,0,0,0,0,0,0,2.0692,2.0714,2.09,2.082,2.0844,2.091,2.0957,2.0968,2.1,2.1068,2.108,2.1026,2.1136,2.1154,2.1232,2.126,2.1221,2.1227,2.1438,2.1441,2.1443,2.1437,0,0,0,0,0,0,2.0685,2.0712,2.0741,2.082,2.0848,2.0967,2.0959,2.0971,2.1012,2.1013,2.1091,2.1102,2.1136,2.1221,2.1239,2.1269,2.1233,2.1436,2.1439,2.1443,2.1435,2.1439,2.1442,0,0,0,0,0,2.0676,2.0733,2.0742,2.0764,2.0886,2.0968,2.0984,2.1024,2.1014,2.1044,2.1088,2.11,2.1254,2.1229,2.1249,2.1282,2.1434,2.1438,2.1442,2.1433,2.1438,2.1442,0,0,0,0,0,0,2.0654,2.0744,2.0755,2.0839,2.0896,2.0974,2.1012,2.1028,2.1088,2.1086,2.1132,2.1149,2.1224,2.1261,2.1231,2.1356,2.1344,2.1352,2.133,2.1335,2.1339,2.1328,2.1239,0,0,0,0,0,2.0659,2.0719,2.0794,2.0861,2.0889,2.0945,2.0983,2.1008,2.1069,2.1092,2.1142,2.1199,2.126,2.13,2.136,2.144,2.1457,2.1472,2.1476,2.1479,2.1485,2.153,2.1537,2.1457,2.1457,2.1457,0,0,2.0669,2.0726,2.0761,2.0858,2.0905,2.0965,2.0965,2.1029,2.1074,2.1102,2.1179,2.1217,2.1284,2.1363,2.1401,2.1396,2.1511,2.1484,2.1486,2.1491,2.1535,2.1542,2.1549,2.146,2.1459,2.1459,0,0,2.0719,2.0768,2.0829,2.0877,2.0948,2.0986,2.1,2.1076,2.1103,2.1182,2.1203,2.1257,2.1362,2.1408,2.1445,2.1513,2.1525,2.1531,2.155,2.1593,2.16,2.1605,2.1629,2.1637,2.1537,2.1537,2.1537,0,2.0723,2.0816,2.0858,2.0922,2.0963,2.0992,2.1054,2.1097,2.1184,2.1211,2.1205,2.1338,2.1384,2.1475,2.1491,2.1521,2.1538,2.1522,2.1595,2.1602,2.1608,2.1631,2.1639,2.1537,2.1537,2.1537,2.1537,0,2.0817,2.0881,2.0921,2.1006,2.1052,2.1114,2.1165,2.1206,2.1228,2.1265,2.1344,2.1401,2.1473,2.1497,2.1518,2.159,2.1585,2.1587,2.1575,2.1615,2.1637,2.1646,2.1537,2.1537,2.1537,2.1537,0,0,2.0856,2.0964,2.0978,2.1017,2.1098,2.1148,2.1211,2.1283,2.1317,2.1376,2.1429,2.1517,2.1519,2.1561,2.1588,2.1625,2.1675,2.1623,2.1625,2.163,2.1757,2.1755,2.1765,2.1684,2.1686,2.1687,2.1751,0,2.0916,2.1031,2.1071,2.1165,2.1224,2.1252,2.1307,2.1362,2.1398,2.1453,2.1493,2.1555,2.1553,2.1579,2.1617,2.166,2.1701,2.1656,2.1732,2.1735,2.1715,2.1777,2.1775,2.1833,2.176,2.1762,2.1763,0,2.1001,2.1063,2.1163,2.1237,2.1263,2.1312,2.1381,2.1433,2.1495,2.1519,2.1567,2.159,2.1656,2.164,2.173,2.1699,2.1732,2.1758,2.1761,2.177,2.1751,2.1786,2.1852,2.1861,2.1777,2.1776,2.1775,0,2.1019,2.1127,2.1201,2.1234,2.1321,2.1355,2.1393,2.1454,2.1495,2.1554,2.1581,2.1647,2.1683,2.1733,2.1773,2.1758,2.1859,2.1847,2.188,2.1879,2.19,2.1898,2.1972,2.1922,2.1922,2.1921,2.1921,0,2.1082,2.1142,2.1211,2.1256,2.1324,2.1369,2.1434,2.1474,2.1528,2.1581,2.1608,2.1657,2.1708,2.1762,2.1794,2.1864,2.188,2.19,2.1908,2.1897,2.1895,2.192,2.1916,2.1924,2.1923,2.1923,2.1922,0,2.1114,2.1162,2.1245,2.1322,2.1342,2.1389,2.1454,2.1499,2.1536,2.1603,2.1621,2.168,2.1746,2.1791,2.1875,2.1897,2.1971,2.1979,2.1951,2.1955,2.1985,2.1981,2.2077,2.2091,2.2032,2.2032,2.2033,0,2.115,2.1197,2.128,2.1318,2.1356,2.1416,2.1458,2.1504,2.1546,2.1621,2.1656,2.1724,2.1781,2.1885,2.1934,2.1998,2.2007,2.2036,2.2017,2.2005,2.2007,2.2004,2.2008,2.2039,2.2039,2.204,2.204,0,2.121,2.1231,2.1291,2.136,2.141,2.1465,2.1521,2.155,2.1606,2.1651,2.172,2.1764,2.1851,2.1917,2.1987,2.2024,2.2041,2.2046,2.2057,2.2047,2.2028,2.2038,2.1958,2.2043,2.2043,2.2043,2.2043,2.2043,2.1245,2.1288,2.1353,2.1418,2.1466,2.1517,2.1563,2.1607,2.1665,2.174,2.1763,2.1834,2.1895,2.199,2.2028,2.2083,2.2081,2.2097,2.2101,2.2104,2.2104,2.202,2.2096,2.2096,2.2096,2.2096,2.2096,0,2.1305,2.1348,2.1409,2.1487,2.1538,2.1551,2.1614,2.1656,2.1718,2.1774,2.183,2.1908,2.1973,2.2028,2.2094,2.2128,2.2137,2.2144,2.2142,2.215,2.2102,2.2086,2.2135,2.2135,2.2135,2.2135,2.2135,2.2135,2.1343,2.1416,2.1446,2.1543,2.1585,2.1656,2.1691,2.1738,2.1783,2.1869,2.1924,2.196,2.2015,2.2086,2.2146,2.216,2.2183,2.2188,2.2204,2.2158,2.2153,2.2149,2.2134,2.2192,2.2193,2.2247,2.2247,2.2248]}]]